TimeCST,TemperatureF,Dew PointF,Humidity,Sea Level PressureIn,VisibilityMPH,Wind Direction,Wind SpeedMPH,Gust SpeedMPH,PrecipitationIn,Events,Conditions,WindDirDegrees,DateUTC
12:54 AM,19.9,12.0,71,29.98,9.0,NW,19.6,32.2,0.00,Snow,Light Snow,310,2012-12-10 06:54:00
1:54 AM,19.0,12.0,74,29.99,9.0,NW,16.1,28.8,0.00,Snow,Light Snow,320,2012-12-10 07:54:00
2:54 AM,19.0,12.0,74,30.01,9.0,NNW,19.6,-,0.00,Snow,Light Snow,330,2012-12-10 08:54:00
3:40 AM,19.4,12.2,74,29.97,9.0,NW,18.4,-,0.00,,Overcast,310,2012-12-10 09:40:00
3:54 AM,19.0,10.9,71,30.01,10.0,NW,21.9,31.1,0.00,Snow,Light Snow,320,2012-12-10 09:54:00
4:54 AM,18.0,10.0,71,30.00,9.0,NW,13.8,23.0,0.00,Snow,Light Snow,320,2012-12-10 10:54:00
5:54 AM,19.0,10.9,71,30.01,10.0,NW,16.1,-,0.00,,Overcast,310,2012-12-10 11:54:00
6:37 AM,19.4,10.4,68,29.97,10.0,WNW,13.8,-,N/A,,Overcast,300,2012-12-10 12:37:00
6:54 AM,19.0,10.9,71,30.02,10.0,WNW,13.8,-,N/A,,Overcast,300,2012-12-10 12:54:00
7:54 AM,19.0,9.0,65,30.04,10.0,WNW,13.8,-,N/A,,Overcast,290,2012-12-10 13:54:00
8:54 AM,16.0,6.1,65,30.06,10.0,WNW,13.8,-,N/A,,Overcast,290,2012-12-10 14:54:00
9:54 AM,16.0,5.0,62,30.06,10.0,WNW,11.5,-,N/A,,Mostly Cloudy,300,2012-12-10 15:54:00
10:54 AM,18.0,6.1,60,30.06,10.0,West,12.7,-,N/A,,Partly Cloudy,280,2012-12-10 16:54:00
11:54 AM,21.0,9.0,60,30.04,10.0,WNW,15.0,-,N/A,,Partly Cloudy,290,2012-12-10 17:54:00
12:54 PM,25.0,12.0,58,30.01,10.0,WNW,10.4,-,N/A,,Clear,300,2012-12-10 18:54:00
1:54 PM,27.0,12.9,56,30.00,10.0,West,11.5,-,N/A,,Partly Cloudy,270,2012-12-10 19:54:00
2:54 PM,28.0,10.9,49,29.98,10.0,WNW,11.5,-,N/A,,Partly Cloudy,290,2012-12-10 20:54:00
3:54 PM,27.0,8.1,45,29.99,10.0,West,11.5,-,N/A,,Scattered Clouds,280,2012-12-10 21:54:00
4:54 PM,25.0,8.1,49,29.99,10.0,West,3.5,-,N/A,,Partly Cloudy,260,2012-12-10 22:54:00
5:54 PM,23.0,10.0,58,30.00,10.0,SW,4.6,-,N/A,,Clear,220,2012-12-10 23:54:00
6:54 PM,21.9,10.0,60,30.00,10.0,SSW,4.6,-,N/A,,Clear,200,2012-12-11 00:54:00
7:54 PM,21.0,10.0,63,30.01,10.0,SSW,4.6,-,N/A,,Clear,210,2012-12-11 01:54:00
8:54 PM,18.0,9.0,68,30.01,10.0,South,5.8,-,N/A,,Clear,180,2012-12-11 02:54:00
9:54 PM,17.1,8.1,68,30.00,10.0,South,6.9,-,N/A,,Clear,170,2012-12-11 03:54:00
10:54 PM,17.1,7.0,65,30.01,10.0,South,3.5,-,N/A,,Clear,180,2012-12-11 04:54:00
11:54 PM,17.1,7.0,65,29.99,10.0,South,8.1,-,N/A,,Partly Cloudy,170,2012-12-11 05:54:00